BGTL

Thule Air Base Airport

Thule, Greenland
Issued Wind Visibility Temperature Dew Point Humidity Barometer
Aug-20
22:58 UTC
280°
4 KTS
10,000+ meters C
43° F
C
34° F
71% 29.84" Hg
1008.9 hPa
VFR
Aug-20
21:58 UTC
270°
4 KTS
10,000+ meters C
45° F
-0° C
32° F
61% 29.82" Hg
1008.2 hPa
VFR
Aug-20
20:58 UTC
10,000+ meters C
46° F
C
32° F
57% 29.81" Hg
1007.8 hPa
VFR
Aug-20
19:58 UTC
290°
5 KTS
10,000+ meters C
46° F
-0° C
32° F
57% 29.8" Hg
1007.5 hPa
VFR
Aug-20
18:58 UTC
290°
5 KTS
10,000+ meters C
46° F
-1° C
30° F
53% 29.8" Hg
1007.5 hPa
VFR
Aug-20
17:58 UTC
280°
4 KTS
10,000+ meters C
45° F
-0° C
32° F
61% 29.79" Hg
1007.2 hPa
VFR
Aug-20
16:58 UTC
290°
6 KTS
10,000+ meters C
43° F
-1° C
30° F
61% 29.79" Hg
1007.2 hPa
VFR
Aug-20
15:58 UTC
280°
4 KTS
10,000+ meters C
43° F
C
34° F
71% 29.79" Hg
1007.2 hPa
VFR
Aug-20
14:58 UTC
280°
6 KTS
10,000+ meters C
43° F
C
34° F
71% 29.8" Hg
1007.5 hPa
VFR
Aug-20
13:58 UTC
120°
5 KTS
10,000+ meters 10° C
50° F
-2° C
28° F
43% 29.8" Hg
1007.5 hPa
VFR
Aug-20
12:58 UTC
10,000+ meters C
45° F
-0° C
32° F
61% 29.81" Hg
1007.8 hPa
VFR
Aug-20
11:58 UTC
10,000+ meters C
43° F
-1° C
30° F
61% 29.8" Hg
1007.5 hPa
VFR
Aug-20
10:58 UTC
10,000+ meters C
41° F
C
34° F
76% 29.79" Hg
1007.2 hPa
VFR
Aug-20
09:58 UTC
10,000+ meters C
39° F
-1° C
30° F
70% 29.78" Hg
1006.8 hPa
VFR
Aug-20
08:58 UTC
100°
5 KTS
10,000+ meters C
39° F
-1° C
30° F
70% 29.77" Hg
1006.5 hPa
VFR
Aug-20
07:58 UTC
130°
4 KTS
10,000+ meters C
37° F
-1° C
30° F
75% 29.76" Hg
1006.2 hPa
VFR
Aug-20
06:58 UTC
120°
5 KTS
10,000+ meters C
36° F
-1° C
30° F
81% 29.75" Hg
1005.8 hPa
VFR
Aug-20
05:58 UTC
120°
6 KTS
10,000+ meters C
36° F
-0° C
32° F
87% 29.75" Hg
1005.9 hPa
VFR
Aug-20
04:58 UTC
120°
9 KTS
10,000+ meters C
37° F
C
32° F
81% 29.75" Hg
1005.8 hPa
VFR
Aug-20
03:58 UTC
110°
7 KTS
10,000+ meters C
37° F
C
32° F
81% 29.75" Hg
1005.9 hPa
VFR
Aug-20
02:58 UTC
120°
3 KTS
10,000+ meters C
37° F
C
34° F
87% 29.77" Hg
1006.5 hPa
VFR
Aug-20
01:58 UTC
130°
3 KTS
10,000+ meters C
39° F
C
34° F
81% 29.78" Hg
1006.8 hPa
VFR
Aug-20
00:58 UTC
090°
4 KTS
10,000+ meters C
41° F
C
34° F
76% 29.79" Hg
1007.2 hPa
VFR
Aug-19
23:58 UTC
10,000+ meters C
41° F
C
34° F
76% 29.8" Hg
1007.5 hPa
VFR